sat.trackr.live / text

‹ back to catalog

RROCI-2

NORAD 59106 · 2024-043J

PAYLOAD ACTIVE UNKNOWN

§ Identity

Operator
Country
US
Launch date
2024-03-04
Launch site
AFWTR
Launch vehicle
Mass (kg)
RCS (m²)

External: N2YO · Heavens-Above · Gunter

§ Orbital elements

Epoch: 2026-09-22T07:20:26.138112Z

Period
95.98 min
Inclination
97.8539°
Eccentricity
0.0016616
Mean motion
15.00264650 rev/d
Perigee alt
554.5 km
Apogee alt
577.6 km
Semi-major
6,944.2 km
B*
1.2630e-4
RAAN
38.9315°
Arg perigee
67.2864°
Mean anomaly
293.0113°
Rev number
13,932

§ Raw data

RROCI-21 59106U 24043J   26265.30585808  .00001523  00000+0  12630-3 0  99972 59106  97.8539  38.9315 0016616  67.2864 293.0113 15.00264650139322

JSON: /api/v1/satellites/59106 · /tle

For live sub-satellite position, see the globe view (requires WebGL).

§ Visibility from observer

Set your observer location to see the next 7 days of passes ≥ 10°. The values pass through the URL so the page stays shareable.

No JS? Fill the form by hand. The geolocation button needs JavaScript.

§ Radio — SatNOGS DB

ModeDescriptionDownlinkUplink
QPSK Mode S - QPSK 2Mbps - Downlink 2.217 GHz
OQPSK Mode X - OQPSK 100Mbps - Downlink 8.125 GHz

2 transmitters · refreshed weekly from db.satnogs.org